WAT443 TJSJ-TQPF

Flight info

Callsign WAT443
Flight time 1h 11m
Altitude 7000
Route SJU RTE2 STT A638 PJM
Aircraft C208/L-SDFGR/C

Departure

Time 2026-04-27 19:53
Airport Luis Munoz Marin International Airport (TJSJ)

Arrival

Time 2026-04-27 21:05
Airport Clayton J. Lloyd International Airport (TQPF)
Time Latitude Longitude Altitude Speed Heading
2026-04-27 19:30 18.43940 -66.00027 17 ft 0 kts 157°
2026-04-27 19:46 18.43939 -66.00027 17 ft 1 kts 157°
2026-04-27 19:47 18.43920 -66.00042 17 ft 7 kts 241°
2026-04-27 19:47 18.43918 -66.00046 17 ft 0 kts 241°
2026-04-27 19:48 18.43917 -66.00047 17 ft 1 kts 241°
2026-04-27 19:49 18.43925 -66.00079 17 ft 9 kts 315°
2026-04-27 19:49 18.44008 -66.00122 17 ft 17 kts 336°
2026-04-27 19:49 18.44145 -66.00181 17 ft 25 kts 338°
2026-04-27 19:49 18.44236 -66.00298 18 ft 21 kts 244°
2026-04-27 19:50 18.44171 -66.00456 18 ft 27 kts 247°
2026-04-27 19:50 18.44066 -66.00641 18 ft 32 kts 246°
2026-04-27 19:50 18.43974 -66.00874 18 ft 37 kts 245°
2026-04-27 19:50 18.43887 -66.01090 17 ft 31 kts 250°
2026-04-27 19:51 18.43810 -66.01298 17 ft 26 kts 252°
2026-04-27 19:51 18.43832 -66.01358 16 ft 0 kts 322°
2026-04-27 19:51 18.43833 -66.01359 16 ft 2 kts 322°
2026-04-27 19:51 18.43892 -66.01385 16 ft 13 kts 10°
2026-04-27 19:52 18.43942 -66.01319 15 ft 20 kts 68°
2026-04-27 19:52 18.44052 -66.01046 17 ft 60 kts 66°
2026-04-27 19:52 18.44258 -66.00542 62 ft 82 kts 69°
2026-04-27 19:52 18.44475 -65.99979 227 ft 84 kts 66°
2026-04-27 19:53 18.44827 -65.98736 570 ft 91 kts 99°
2026-04-27 19:53 18.44818 -65.98079 759 ft 89 kts 95°
2026-04-27 19:53 18.44807 -65.97432 942 ft 88 kts 94°
2026-04-27 19:54 18.44821 -65.96778 1120 ft 91 kts 91°
2026-04-27 19:54 18.44845 -65.96106 1318 ft 90 kts 91°
2026-04-27 19:54 18.44876 -65.95436 1539 ft 97 kts 91°
2026-04-27 19:54 18.44919 -65.94671 1768 ft 111 kts 91°
2026-04-27 19:55 18.44965 -65.93839 2000 ft 116 kts 92°
2026-04-27 19:55 18.45020 -65.92962 2230 ft 124 kts 90°
2026-04-27 19:55 18.45084 -65.92036 2446 ft 128 kts 91°
2026-04-27 19:55 18.45140 -65.91091 2668 ft 131 kts 90°
2026-04-27 19:56 18.45206 -65.90107 2875 ft 137 kts 91°
2026-04-27 19:56 18.45273 -65.89112 3072 ft 134 kts 91°
2026-04-27 19:56 18.45335 -65.88146 3285 ft 131 kts 91°
2026-04-27 19:56 18.45393 -65.87194 3459 ft 132 kts 89°
2026-04-27 19:57 18.45504 -65.86229 3658 ft 134 kts 83°
2026-04-27 19:57 18.45567 -65.85261 3842 ft 131 kts 95°
2026-04-27 19:57 18.45586 -65.84309 4028 ft 129 kts 91°
2026-04-27 19:57 18.45645 -65.83415 4213 ft 127 kts 88°
2026-04-27 19:58 18.45732 -65.82490 4389 ft 127 kts 85°
2026-04-27 19:58 18.45804 -65.81567 4585 ft 124 kts 92°
2026-04-27 19:58 18.45819 -65.80665 4769 ft 123 kts 88°
2026-04-27 19:58 18.45903 -65.79777 4955 ft 121 kts 86°
2026-04-27 19:59 18.45970 -65.78905 5145 ft 119 kts 92°
2026-04-27 19:59 18.46014 -65.78040 5334 ft 119 kts 93°
2026-04-27 19:59 18.46049 -65.77151 5529 ft 122 kts 88°
2026-04-27 19:59 18.46128 -65.76255 5724 ft 124 kts 85°
2026-04-27 20:00 18.46202 -65.75353 5914 ft 123 kts 91°
2026-04-27 20:00 18.46252 -65.74461 6100 ft 120 kts 91°
2026-04-27 20:00 18.46310 -65.73598 6290 ft 117 kts 89°
2026-04-27 20:00 18.46364 -65.72741 6463 ft 115 kts 89°
2026-04-27 20:01 18.46421 -65.71912 6636 ft 112 kts 90°
2026-04-27 20:01 18.46472 -65.71121 6788 ft 104 kts 89°
2026-04-27 20:01 18.46523 -65.70396 6925 ft 94 kts 91°
2026-04-27 20:01 18.46566 -65.69708 6969 ft 93 kts 91°
2026-04-27 20:02 18.46612 -65.69008 6999 ft 99 kts 95°
2026-04-27 20:02 18.46657 -65.68247 7020 ft 110 kts 90°
2026-04-27 20:02 18.46711 -65.67400 7029 ft 121 kts 92°
2026-04-27 20:02 18.46751 -65.66478 7020 ft 131 kts 91°
2026-04-27 20:03 18.46812 -65.65499 7018 ft 137 kts 90°
2026-04-27 20:03 18.46876 -65.64482 7013 ft 142 kts 91°
2026-04-27 20:03 18.46942 -65.63433 7014 ft 145 kts 90°
2026-04-27 20:03 18.47012 -65.62361 7012 ft 148 kts 88°
2026-04-27 20:04 18.47094 -65.61267 7007 ft 152 kts 87°
2026-04-27 20:04 18.47180 -65.60151 7013 ft 155 kts 88°
2026-04-27 20:04 18.47268 -65.58986 7016 ft 165 kts 90°
2026-04-27 20:04 18.47337 -65.57759 7019 ft 170 kts 90°
2026-04-27 20:05 18.47411 -65.56490 7010 ft 177 kts 87°
2026-04-27 20:05 18.47509 -65.55196 7006 ft 178 kts 89°
2026-04-27 20:05 18.47577 -65.53909 7007 ft 173 kts 89°
2026-04-27 20:05 18.47653 -65.52661 6995 ft 168 kts 90°
2026-04-27 20:06 18.47735 -65.51454 6994 ft 164 kts 89°
2026-04-27 20:06 18.47816 -65.50271 6989 ft 161 kts 89°
2026-04-27 20:06 18.47890 -65.49099 6993 ft 159 kts 90°
2026-04-27 20:06 18.47965 -65.47933 6990 ft 160 kts 90°
2026-04-27 20:07 18.48038 -65.46765 6991 ft 160 kts 90°
2026-04-27 20:07 18.48111 -65.45603 6992 ft 158 kts 89°
2026-04-27 20:07 18.48188 -65.44451 6994 ft 159 kts 88°
2026-04-27 20:07 18.48265 -65.43280 6996 ft 160 kts 91°
2026-04-27 20:08 18.48332 -65.42113 6991 ft 160 kts 90°
2026-04-27 20:08 18.48409 -65.40948 6992 ft 159 kts 90°
2026-04-27 20:08 18.48483 -65.39787 6991 ft 160 kts 89°
2026-04-27 20:08 18.48560 -65.38619 6989 ft 159 kts 88°
2026-04-27 20:09 18.48633 -65.37456 6990 ft 159 kts 90°
2026-04-27 20:09 18.48705 -65.36293 6990 ft 159 kts 90°
2026-04-27 20:09 18.48778 -65.35129 6988 ft 159 kts 89°
2026-04-27 20:09 18.48854 -65.33968 6986 ft 159 kts 90°
2026-04-27 20:10 18.48927 -65.32808 6988 ft 159 kts 89°
2026-04-27 20:10 18.49000 -65.31646 6986 ft 159 kts 90°
2026-04-27 20:10 18.49070 -65.30490 6986 ft 159 kts 89°
2026-04-27 20:10 18.49144 -65.29324 6987 ft 160 kts 88°
2026-04-27 20:11 18.49194 -65.28154 6984 ft 159 kts 98°
2026-04-27 20:11 18.48835 -65.27078 6985 ft 156 kts 122°
2026-04-27 20:11 18.48285 -65.26088 6990 ft 156 kts 122°
2026-04-27 20:11 18.47755 -65.25088 6994 ft 156 kts 122°
2026-04-27 20:12 18.47222 -65.24096 7002 ft 157 kts 123°
2026-04-27 20:12 18.46862 -65.23427 6999 ft 158 kts 122°
2026-04-27 20:12 18.46138 -65.22080 7003 ft 158 kts 122°
2026-04-27 20:12 18.45600 -65.21072 7001 ft 157 kts 122°
2026-04-27 20:13 18.45060 -65.20073 7001 ft 157 kts 121°
2026-04-27 20:13 18.44520 -65.19068 6999 ft 158 kts 122°
2026-04-27 20:13 18.43979 -65.18060 7003 ft 158 kts 121°
2026-04-27 20:13 18.43434 -65.17046 7001 ft 160 kts 122°
2026-04-27 20:14 18.42884 -65.16024 7001 ft 160 kts 122°
2026-04-27 20:14 18.42340 -65.15012 7001 ft 158 kts 122°
2026-04-27 20:14 18.41799 -65.14007 6999 ft 157 kts 121°
2026-04-27 20:14 18.41260 -65.13004 7002 ft 156 kts 122°
2026-04-27 20:15 18.40726 -65.12011 6997 ft 156 kts 122°
2026-04-27 20:15 18.40193 -65.11018 6991 ft 156 kts 122°
2026-04-27 20:15 18.39661 -65.10031 6988 ft 155 kts 122°
2026-04-27 20:15 18.39129 -65.09044 6985 ft 154 kts 121°
2026-04-27 20:16 18.38600 -65.08060 6986 ft 154 kts 122°
2026-04-27 20:16 18.38072 -65.07078 6986 ft 154 kts 122°
2026-04-27 20:16 18.37543 -65.06095 6987 ft 155 kts 123°
2026-04-27 20:16 18.37012 -65.05108 6986 ft 155 kts 121°
2026-04-27 20:17 18.36479 -65.04123 6987 ft 154 kts 123°
2026-04-27 20:17 18.35959 -65.03138 6987 ft 155 kts 118°
2026-04-27 20:17 18.35795 -65.02021 6990 ft 157 kts 85°
2026-04-27 20:17 18.35982 -65.01278 6989 ft 159 kts 71°
2026-04-27 20:18 18.36502 -64.99822 6991 ft 159 kts 73°
2026-04-27 20:18 18.36879 -64.98717 6990 ft 161 kts 73°
2026-04-27 20:18 18.37265 -64.97608 6997 ft 161 kts 72°
2026-04-27 20:18 18.37652 -64.96496 6997 ft 162 kts 72°
2026-04-27 20:19 18.38039 -64.95384 6999 ft 162 kts 73°
2026-04-27 20:19 18.38425 -64.94273 7001 ft 162 kts 72°
2026-04-27 20:19 18.38811 -64.93158 6999 ft 163 kts 72°
2026-04-27 20:19 18.39196 -64.92037 6998 ft 163 kts 72°
2026-04-27 20:20 18.39585 -64.90916 6996 ft 163 kts 72°
2026-04-27 20:20 18.39977 -64.89797 7000 ft 163 kts 74°
2026-04-27 20:20 18.40365 -64.88678 6995 ft 163 kts 73°
2026-04-27 20:20 18.40745 -64.87577 6996 ft 162 kts 72°
2026-04-27 20:21 18.41134 -64.86465 6999 ft 161 kts 71°
2026-04-27 20:21 18.41527 -64.85358 6997 ft 161 kts 72°
2026-04-27 20:21 18.41907 -64.84244 6997 ft 162 kts 74°
2026-04-27 20:21 18.42291 -64.83125 6998 ft 163 kts 73°
2026-04-27 20:22 18.42676 -64.82007 6997 ft 163 kts 72°
2026-04-27 20:22 18.43063 -64.80888 6998 ft 162 kts 72°
2026-04-27 20:22 18.43453 -64.79757 6996 ft 162 kts 73°
2026-04-27 20:22 18.43834 -64.78658 6994 ft 162 kts 73°
2026-04-27 20:23 18.44220 -64.77543 6999 ft 162 kts 72°
2026-04-27 20:23 18.44607 -64.76425 6998 ft 163 kts 73°
2026-04-27 20:23 18.44995 -64.75307 7000 ft 163 kts 74°
2026-04-27 20:23 18.45379 -64.74183 6987 ft 162 kts 73°
2026-04-27 20:24 18.45758 -64.73086 6985 ft 159 kts 71°
2026-04-27 20:24 18.46141 -64.71984 6984 ft 160 kts 72°
2026-04-27 20:24 18.46528 -64.70876 6984 ft 162 kts 73°
2026-04-27 20:24 18.46908 -64.69761 6988 ft 162 kts 73°
2026-04-27 20:25 18.47287 -64.68643 6999 ft 162 kts 72°
2026-04-27 20:25 18.47677 -64.67532 6999 ft 162 kts 72°
2026-04-27 20:25 18.48062 -64.66418 7001 ft 162 kts 73°
2026-04-27 20:25 18.48446 -64.65303 7004 ft 162 kts 73°
2026-04-27 20:26 18.48830 -64.64187 7004 ft 162 kts 73°
2026-04-27 20:26 18.49217 -64.63069 7006 ft 163 kts 73°
2026-04-27 20:26 18.49604 -64.61948 7007 ft 163 kts 74°
2026-04-27 20:26 18.49991 -64.60826 7010 ft 163 kts 72°
2026-04-27 20:27 18.50377 -64.59703 7011 ft 163 kts 72°
2026-04-27 20:27 18.50633 -64.58959 7009 ft 163 kts 73°
2026-04-27 20:27 18.51021 -64.57828 7010 ft 163 kts 72°
2026-04-27 20:27 18.51409 -64.56705 7006 ft 163 kts 73°
2026-04-27 20:28 18.51797 -64.55587 7007 ft 163 kts 72°
2026-04-27 20:28 18.52176 -64.54480 7010 ft 163 kts 72°
2026-04-27 20:28 18.52562 -64.53361 7011 ft 163 kts 73°
2026-04-27 20:28 18.52958 -64.52216 7007 ft 163 kts 72°
2026-04-27 20:29 18.53343 -64.51091 7010 ft 163 kts 73°
2026-04-27 20:29 18.53731 -64.49969 7008 ft 164 kts 72°
2026-04-27 20:29 18.54118 -64.48838 7010 ft 164 kts 72°
2026-04-27 20:29 18.54508 -64.47708 7008 ft 164 kts 74°
2026-04-27 20:30 18.54893 -64.46578 7003 ft 164 kts 73°
2026-04-27 20:30 18.55283 -64.45456 7003 ft 163 kts 73°
2026-04-27 20:30 18.55663 -64.44339 7001 ft 162 kts 73°
2026-04-27 20:30 18.56045 -64.43225 6999 ft 161 kts 73°
2026-04-27 20:31 18.56429 -64.42113 7001 ft 162 kts 72°
2026-04-27 20:31 18.56814 -64.40995 7002 ft 162 kts 72°
2026-04-27 20:31 18.57197 -64.39878 7000 ft 162 kts 73°
2026-04-27 20:31 18.57584 -64.38759 6999 ft 162 kts 73°
2026-04-27 20:32 18.57960 -64.37655 7001 ft 162 kts 72°
2026-04-27 20:32 18.58348 -64.36524 7000 ft 162 kts 72°
2026-04-27 20:32 18.58730 -64.35409 6997 ft 162 kts 73°
2026-04-27 20:32 18.59109 -64.34306 6996 ft 162 kts 73°
2026-04-27 20:33 18.59496 -64.33175 6998 ft 162 kts 72°
2026-04-27 20:33 18.59875 -64.32073 6997 ft 162 kts 72°
2026-04-27 20:33 18.60256 -64.30960 6997 ft 162 kts 73°
2026-04-27 20:33 18.60644 -64.29834 6995 ft 161 kts 73°
2026-04-27 20:34 18.61026 -64.28720 6994 ft 161 kts 73°
2026-04-27 20:34 18.61404 -64.27605 6994 ft 162 kts 72°
2026-04-27 20:34 18.61789 -64.26488 6996 ft 162 kts 74°
2026-04-27 20:34 18.62171 -64.25368 6992 ft 162 kts 74°
2026-04-27 20:35 18.62555 -64.24252 6992 ft 162 kts 72°
2026-04-27 20:35 18.62934 -64.23138 6993 ft 161 kts 72°
2026-04-27 20:35 18.63316 -64.22029 6992 ft 161 kts 74°
2026-04-27 20:35 18.63696 -64.20917 6994 ft 161 kts 74°
2026-04-27 20:36 18.64076 -64.19803 6990 ft 162 kts 72°
2026-04-27 20:36 18.64453 -64.18697 6995 ft 162 kts 72°
2026-04-27 20:36 18.64835 -64.17581 6992 ft 162 kts 72°
2026-04-27 20:36 18.65216 -64.16463 6993 ft 162 kts 74°
2026-04-27 20:37 18.65601 -64.15336 6994 ft 162 kts 74°
2026-04-27 20:37 18.65982 -64.14220 6996 ft 161 kts 72°
2026-04-27 20:37 18.66362 -64.13110 6995 ft 162 kts 72°
2026-04-27 20:37 18.66742 -64.11989 6994 ft 162 kts 74°
2026-04-27 20:38 18.66837 -64.10841 6991 ft 157 kts 102°
2026-04-27 20:38 18.66449 -64.09806 6991 ft 153 kts 125°
2026-04-27 20:38 18.65836 -64.08868 6995 ft 153 kts 127°
2026-04-27 20:38 18.65249 -64.07931 6995 ft 154 kts 125°
2026-04-27 20:39 18.64654 -64.06992 6993 ft 153 kts 126°
2026-04-27 20:39 18.64061 -64.06060 6993 ft 153 kts 125°
2026-04-27 20:39 18.63466 -64.05126 6993 ft 153 kts 126°
2026-04-27 20:39 18.62874 -64.04197 6996 ft 152 kts 126°
2026-04-27 20:40 18.62285 -64.03271 6993 ft 152 kts 126°
2026-04-27 20:40 18.61700 -64.02347 6994 ft 151 kts 126°
2026-04-27 20:40 18.61114 -64.01427 6995 ft 151 kts 126°
2026-04-27 20:40 18.60540 -64.00524 6997 ft 150 kts 126°
2026-04-27 20:41 18.59951 -63.99597 6994 ft 151 kts 125°
2026-04-27 20:41 18.59366 -63.98679 6995 ft 151 kts 126°
2026-04-27 20:41 18.58783 -63.97764 6995 ft 150 kts 126°
2026-04-27 20:41 18.58198 -63.96843 6995 ft 151 kts 125°
2026-04-27 20:42 18.57611 -63.95922 6995 ft 151 kts 125°
2026-04-27 20:42 18.57025 -63.95001 6994 ft 151 kts 125°
2026-04-27 20:42 18.56440 -63.94083 6994 ft 151 kts 126°
2026-04-27 20:42 18.55853 -63.93164 6993 ft 151 kts 125°
2026-04-27 20:43 18.55267 -63.92241 6996 ft 152 kts 126°
2026-04-27 20:43 18.54677 -63.91314 6997 ft 153 kts 126°
2026-04-27 20:43 18.54085 -63.90386 6998 ft 152 kts 127°
2026-04-27 20:43 18.53495 -63.89459 6996 ft 153 kts 125°
2026-04-27 20:44 18.52903 -63.88529 6995 ft 153 kts 126°
2026-04-27 20:44 18.52311 -63.87602 6996 ft 152 kts 126°
2026-04-27 20:44 18.51725 -63.86684 6997 ft 154 kts 125°
2026-04-27 20:44 18.51129 -63.85747 6993 ft 154 kts 125°
2026-04-27 20:45 18.50530 -63.84809 7000 ft 155 kts 125°
2026-04-27 20:45 18.49932 -63.83870 7000 ft 154 kts 126°
2026-04-27 20:45 18.49332 -63.82931 7001 ft 154 kts 125°
2026-04-27 20:45 18.48725 -63.81982 7002 ft 154 kts 126°
2026-04-27 20:46 18.48126 -63.81042 6999 ft 155 kts 126°
2026-04-27 20:46 18.47528 -63.80104 7000 ft 154 kts 126°
2026-04-27 20:46 18.46937 -63.79178 7000 ft 155 kts 126°
2026-04-27 20:46 18.46335 -63.78237 7000 ft 155 kts 125°
2026-04-27 20:47 18.45726 -63.77284 6998 ft 155 kts 125°
2026-04-27 20:47 18.45133 -63.76352 6998 ft 155 kts 125°
2026-04-27 20:47 18.44521 -63.75395 6997 ft 156 kts 124°
2026-04-27 20:47 18.43924 -63.74460 6999 ft 156 kts 126°
2026-04-27 20:48 18.43320 -63.73515 6998 ft 155 kts 125°
2026-04-27 20:48 18.42914 -63.72879 6998 ft 156 kts 125°
2026-04-27 20:48 18.42114 -63.71627 7000 ft 155 kts 126°
2026-04-27 20:48 18.41513 -63.70687 7001 ft 155 kts 126°
2026-04-27 20:49 18.40882 -63.69752 6999 ft 154 kts 132°
2026-04-27 20:49 18.40137 -63.68962 6998 ft 154 kts 136°
2026-04-27 20:49 18.39382 -63.68160 6997 ft 155 kts 130°
2026-04-27 20:49 18.38927 -63.67134 6996 ft 156 kts 111°
2026-04-27 20:50 18.38548 -63.66066 6998 ft 156 kts 114°
2026-04-27 20:50 18.38116 -63.65014 6997 ft 156 kts 115°
2026-04-27 20:50 18.37678 -63.63968 7002 ft 156 kts 116°
2026-04-27 20:50 18.37238 -63.62916 7001 ft 157 kts 116°
2026-04-27 20:51 18.36796 -63.61865 7003 ft 157 kts 116°
2026-04-27 20:51 18.36354 -63.60811 7001 ft 157 kts 116°
2026-04-27 20:51 18.35904 -63.59742 7001 ft 158 kts 115°
2026-04-27 20:51 18.35468 -63.58701 6999 ft 157 kts 116°
2026-04-27 20:52 18.35020 -63.57634 6999 ft 158 kts 115°
2026-04-27 20:52 18.34576 -63.56576 6888 ft 165 kts 116°
2026-04-27 20:52 18.34091 -63.55435 6708 ft 172 kts 116°
2026-04-27 20:52 18.33599 -63.54269 6528 ft 176 kts 115°
2026-04-27 20:53 18.33104 -63.53092 6356 ft 177 kts 115°
2026-04-27 20:53 18.32613 -63.51923 6165 ft 178 kts 116°
2026-04-27 20:53 18.32106 -63.50716 5968 ft 178 kts 116°
2026-04-27 20:53 18.31603 -63.49524 5770 ft 178 kts 115°
2026-04-27 20:54 18.30604 -63.47145 5386 ft 178 kts 116°
2026-04-27 20:54 18.30113 -63.45979 5198 ft 176 kts 115°
2026-04-27 20:54 18.29614 -63.44789 5001 ft 172 kts 115°
2026-04-27 20:55 18.29150 -63.43682 4803 ft 165 kts 115°
2026-04-27 20:55 18.28691 -63.42589 4598 ft 162 kts 115°
2026-04-27 20:55 18.28240 -63.41512 4392 ft 160 kts 116°
2026-04-27 20:55 18.27790 -63.40450 4190 ft 158 kts 115°
2026-04-27 20:56 18.27344 -63.39392 3997 ft 159 kts 115°
2026-04-27 20:56 18.26898 -63.38330 3800 ft 158 kts 115°
2026-04-27 20:56 18.26451 -63.37271 3613 ft 158 kts 116°
2026-04-27 20:56 18.26008 -63.36222 3418 ft 156 kts 115°
2026-04-27 20:57 18.25568 -63.35177 3227 ft 156 kts 115°
2026-04-27 20:57 18.25130 -63.34138 3032 ft 156 kts 115°
2026-04-27 20:57 18.24689 -63.33093 2837 ft 156 kts 115°
2026-04-27 20:57 18.24250 -63.32052 2649 ft 155 kts 115°
2026-04-27 20:58 18.23813 -63.31016 2447 ft 155 kts 115°
2026-04-27 20:58 18.23377 -63.29983 2258 ft 154 kts 116°
2026-04-27 20:58 18.22942 -63.28951 2063 ft 154 kts 116°
2026-04-27 20:58 18.22506 -63.27922 1869 ft 154 kts 115°
2026-04-27 20:59 18.22079 -63.26905 1792 ft 148 kts 116°
2026-04-27 20:59 18.21676 -63.25945 1780 ft 140 kts 116°
2026-04-27 20:59 18.21287 -63.25021 1780 ft 136 kts 115°
2026-04-27 20:59 18.20910 -63.24125 1777 ft 133 kts 116°
2026-04-27 21:00 18.20643 -63.23202 1789 ft 133 kts 94°
2026-04-27 21:00 18.20662 -63.22229 1779 ft 133 kts 95°
2026-04-27 21:00 18.20644 -63.21267 1779 ft 131 kts 94°
2026-04-27 21:00 18.20632 -63.20304 1779 ft 131 kts 94°
2026-04-27 21:01 18.20622 -63.19344 1779 ft 131 kts 94°
2026-04-27 21:01 18.20614 -63.18380 1780 ft 132 kts 94°
2026-04-27 21:01 18.20604 -63.17417 1781 ft 131 kts 95°
2026-04-27 21:01 18.20595 -63.16456 1779 ft 132 kts 94°
2026-04-27 21:02 18.20594 -63.15491 1760 ft 133 kts 93°
2026-04-27 21:02 18.20557 -63.14538 1595 ft 130 kts 97°
2026-04-27 21:02 18.20505 -63.13587 1413 ft 129 kts 96°
2026-04-27 21:02 18.20480 -63.12647 1282 ft 128 kts 94°
2026-04-27 21:03 18.20497 -63.11711 1122 ft 127 kts 92°
2026-04-27 21:03 18.20502 -63.10794 982 ft 124 kts 94°
2026-04-27 21:03 18.20494 -63.09906 870 ft 114 kts 95°
2026-04-27 21:03 18.20514 -63.09132 757 ft 103 kts 94°
2026-04-27 21:04 18.20500 -63.08376 664 ft 104 kts 95°
2026-04-27 21:04 18.20487 -63.07672 539 ft 91 kts 92°
2026-04-27 21:04 18.20484 -63.07030 374 ft 86 kts 92°
2026-04-27 21:04 18.20493 -63.06426 240 ft 80 kts 95°
2026-04-27 21:05 18.20483 -63.05878 127 ft 70 kts 93°
2026-04-27 21:05 18.20477 -63.05458 109 ft 39 kts 90°
2026-04-27 21:05 18.20519 -63.05324 104 ft 13 kts
2026-04-27 21:05 18.20579 -63.05285 103 ft 12 kts 104°
2026-04-27 21:06 18.20593 -63.05247 103 ft 9 kts
2026-04-27 21:06 18.20615 -63.05247 104 ft 4 kts 30°
2026-04-27 21:06 18.20613 -63.05235 103 ft 0 kts 122°